Weather in Chaplygin

Russia / Krasnodar Krai     45°06′54″N   40°45′48″E
temp.,
°C
wind,
m/s
gust,
m/s
humid.,
%
clouds,
%
prec.,
mm/h
press.,
hPa
HPBL,
m
14 june, mon
mon1400:00+16s22880 0.0 101222
03:00+15ssw22935 0.0 101218
06:00+16se239111 0.0 101295
09:00+22e35726 0.0 1012670
12:00+25e565843 0.0 10111683
15:00+26ene4561100 0.0 10101561
18:00+23ene477841 0.3 1010205
21:00+20ene410843 0.3 1009163
15 june, tue
tue1500:00+18ene49855 0.0 1008160
03:00+18ene4108591 0.0 1007178
06:00+18e61289100 1.6 1007274
09:00+23ese4675100 1.9 1008575
12:00+26s336371 0.0 10081396
15:00+28w225718 0.1 10081602
18:00+25w35770 1.3 1009262
21:00+20w22900 1.6 100923
16 june, wed
wed1600:00+19s11890 0.0 100911
03:00+18ese11920 0.0 100811
06:00+19ese23910 0.0 1008103
09:00+24ese36720 0.0 1007721
12:00+27ese4561100 0.1 10071641
15:00+23wnw4584100 0.3 1008287
18:00+23wnw2285100 0.0 1009189
21:00+22wnw2287100 0.1 100929
17 june, thu
thu1700:00+19wnw33911 0.0 100963
03:00+19wnw1297100 0.4 100956
06:00+19wsw2397100 0.0 1009158
09:00+20w4492100 0.2 1010497
12:00+19w5696100 2.1 1011544
15:00+19w3798100 8.3 1013294
18:00+21wsw5790100 1.4 1013571
21:00+18sw339587 1.5 101558
18 june, fri
fri1800:00+17w3998100 0.0 1015265
03:00+16wsw349949 0.0 1016133
06:00+16wsw349867 0.0 1017162
09:00+19w339083 0.1 1017383
12:00+22nne438251 0.3 1017694
15:00+21ne568179 0.5 1017642
18:00+22e2681100 0.1 1016462
21:00+19ene4108624 0.1 1017215